Location: Christian Reformed Church
(43.0975°N, 93.8113°W)
Time: 22:44:27
(UTC+00:00)

Cosmos 1607 - Pass Details

Date: 13 December 2025
Orbit: 926 x 976 km, 65.0° (Epoch: 14 January)

Event Time Altitude Azimuth Distance (km) Brightness Sun altitude
Rises 23:03:35 0° 325° (NW) 3,613 7.1 -4.5°
Reaches altitude 10° 23:06:07 10° 324° (NW) 2,672 6.4 -4.9°
Maximum altitude 23:12:22 80° 239° (WSW) 972 4.2 -5.9°
Drops below altitude 10° 23:18:40 10° 153° (SSE) 2,692 6.3 -6.9°
Sets 23:21:13 0° 152° (SSE) 3,641 7.0 -7.4°
